QPF
0.00 0.00 0.00 0.00 0.00 0.00 0.00 0.00 0.00 0.00 0.00 0.00 0.00 0.00 0.00 0.00 0.00 0.00 0.00 0.00 0.01 0.01 0.02 0.00 0.00 0.00 0.00 0.00 0.00 0.00 0.00 0.00 0.00 0.00 0.00 0.00 0.00 0.00
0.00 0.00 0.00 0.00 0.00 0.00 0.00 0.00 0.00 0.00 0.00 0.00 0.00 0.00 0.00 0.00 0.00 0.00 0.00 0.00 0.00 0.00 0.00 0.00 0.00 0.00 0.00 0.00 0.00 0.00 0.00 0.00 0.00 0.00 0.00 0.00 0.00 0.00
0.00 0.00 0.00 0.00 0.00 0.00 0.00 0.00 0.00 0.00 0.00 0.00 0.00 0.00 0.00 0.00 0.00 0.00 0.00 0.00 0.00 0.00 0.00 0.00 0.00 0.00 0.00 0.00 0.00 0.00 0.00 0.00 0.00 0.00 0.00 0.00 0.00 0.00
0.00 0.00 0.00 0.00 0.00 0.00 0.00 0.00 0.00 0.00 0.00 0.00 0.00 0.00 0.00 0.00 0.00 0.00 0.00 0.00 0.00 0.00 0.00 0.00 0.00 0.00 0.00 0.00 0.00 0.00 0.00 0.00 0.00 0.00 0.00 0.00 0.00 0.00
0.00 0.00 0.00 0.00 0.00 0.00 0.00 0.00 0.00 0.00 0.00 0.00 0.00 0.00 0.00 0.00 0.00 0.00 0.00 0.00 0.00 0.00 0.00 0.00 0.00 0.00 0.00 0.00 0.00 0.00 0.00 0.00 0.00 0.00 0.00 0.00 0.00 0.00
0.00 0.00 0.00 0.00 0.00 0.00 0.00 0.00 0.00 0.00 0.00 0.00 0.00 0.00 0.00 0.00 0.00 0.00 0.00 0.00 0.00 0.00 0.00 0.00 0.00 0.00 0.00 0.00 0.00 0.00 0.00 0.00 0.00 0.00 0.00 0.00 0.00 0.00
0.00 0.00 0.00 0.00 0.00 0.00 0.00 0.00 0.00 0.00 0.00 0.00 0.00 0.00 0.00 0.00 0.00 0.00 0.00 0.00 0.00 0.00 0.00 0.00 0.00 0.00 0.00 0.00 0.00 0.00 0.00 0.00 0.00 0.00 0.00 0.00 0.00 0.00
0.00 0.00 0.00 0.00 0.00 0.00 0.00 0.00 0.00 0.00 0.00 0.00 0.00 0.00 0.00 0.00 0.00 0.00 0.00 0.00 0.00 0.00 0.00 0.00 0.00 0.00 0.00 0.00 0.00 0.00 0.00 0.00 0.00 0.00 0.00 0.00 0.00 0.00
0.00 0.00 0.00 0.00 0.00 0.00 0.00 0.01 0.01 0.01 0.00 0.00 0.00 0.00 0.00 0.00 0.00 0.00 0.00 0.00 0.00 0.00 0.00 0.00 0.00 0.00 0.00 0.00 0.00 0.00 0.00 0.00 0.00 0.00 0.00 0.00 0.00 0.00
0.00 0.00 0.00 0.00 0.00 0.00 0.00 0.00 0.00 0.00 0.00 0.00 0.00 0.00 0.00 0.00 0.00 0.00 0.00 0.00 0.00 0.00 0.00 0.00 0.00 0.00 0.00 0.00 0.00 0.00 0.00 0.00 0.00 0.00 0.00 0.00 0.00 0.00
0.00 0.00 0.00 0.00 0.00 0.00 0.00 0.00 0.00 0.00 0.00 0.00 0.00 0.00 0.00 0.00 0.00 0.00 0.00 0.00 0.00 0.00 0.00 0.00 0.00 0.00 0.00 0.00 0.00 0.00 0.00 0.00 0.00 0.00 0.00 0.00 0.00 0.00
0.00 0.00 0.00 0.00 0.00 0.00 0.00 0.00 0.00 0.00 0.00 0.00 0.00 0.00 0.00 0.00 0.00 0.00 0.00 0.00 0.00 0.00 0.00 0.00 0.00 0.00 0.00 0.00 0.00 0.00 0.00 0.00 0.00 0.00 0.00 0.00 0.00 0.00
0.00 0.00 0.00 0.00 0.00 0.00 0.00 0.00 0.00 0.00 0.00 0.00 0.00 0.00 0.00 0.00 0.00 0.00 0.00 0.00 0.00 0.00 0.00 0.00 0.00 0.00 0.00 0.00 0.00 0.00 0.00 0.00 0.00 0.00 0.00 0.00 0.00 0.00
0.00 0.00 0.00 0.00 0.00 0.00 0.00 0.00 0.00 0.00 0.00 0.00 0.00 0.00 0.00 0.00 0.00 0.00 0.00 0.00 0.00 0.00 0.00 0.00 0.00 0.00 0.00 0.00 0.00 0.00 0.00 0.00 0.00 0.00 0.00 0.00 0.00 0.00
0.00 0.00 0.00 0.00 0.00 0.00 0.00 0.00 0.00 0.00 0.00 0.00 0.00 0.00 0.00 0.00 0.00 0.00 0.00 0.00 0.00 0.00 0.00 0.00 0.00 0.00 0.00 0.00 0.00 0.00 0.00 0.00 0.00 0.00 0.00 0.00 0.00 0.00
0.00 0.00 0.00 0.00 0.00 0.00 0.00 0.00 0.00 0.00 0.00 0.00 0.00 0.00 0.00 0.00 0.00 0.00 0.00 0.00 0.00 0.00 0.00 0.00 0.00 0.00 0.00 0.00 0.00 0.00 0.00 0.00 0.00 0.00 0.00 0.00 0.00 0.00
0.00 0.00 0.00 0.00 0.00 0.00 0.00 0.00 0.00 0.00 0.00 0.00 0.00 0.00 0.00 0.00 0.00 0.00 0.00 0.00 0.00 0.00 0.00 0.00 0.00 0.00 0.00 0.00 0.00 0.00 0.00 0.00 0.00 0.00 0.00 0.00 0.00 0.00
0.00 0.00 0.00 0.00 0.00 0.00 0.00 0.00 0.00 0.00 0.00 0.00 0.00 0.00 0.00 0.00 0.00 0.00 0.00 0.00 0.00 0.00 0.00 0.00 0.00 0.00 0.00 0.00 0.00 0.00 0.00 0.00 0.00 0.00 0.00 0.00 0.00 0.00
0.00 0.00 0.00 0.00 0.00 0.00 0.00 0.00 0.00 0.00 0.00 0.00 0.00 0.00 0.00 0.00 0.00 0.00 0.00 0.00 0.00 0.00 0.00 0.00 0.00 0.00 0.00 0.00 0.00 0.00 0.00 0.00 0.00 0.00 0.00 0.00 0.00 0.00
0.00 0.00 0.00 0.00 0.00 0.00 0.00 0.00 0.00 0.00 0.00 0.00 0.00 0.00 0.00 0.00 0.00 0.00 0.00 0.00 0.00 0.00 0.00 0.00 0.00 0.00 0.00 0.00 0.00 0.00 0.00 0.00 0.00 0.00 0.00 0.00 0.00 0.00
0.00 0.00 0.00 0.00 0.00 0.00 0.00 0.00 0.00 0.00 0.00 0.00 0.00 0.00 0.00 0.00 0.00 0.00 0.00 0.00 0.00 0.00 0.00 0.00 0.00 0.00 0.00 0.00 0.00 0.00 0.00 0.00 0.00 0.00 0.00 0.00 0.00 0.00
0.00 0.00 0.00 0.00 0.00 0.00 0.00 0.00 0.00 0.00 0.00 0.00 0.00 0.00 0.00 0.00 0.00 0.00 0.00 0.00 0.00 0.00 0.00 0.00 0.00 0.00 0.00 0.00 0.00 0.00 0.00 0.00 0.00 0.00 0.00 0.00 0.00 0.00
0.00 0.00 0.00 0.00 0.00 0.00 0.00 0.00 0.00 0.00 0.00 0.00 0.00 0.00 0.00 0.00 0.00 0.00 0.00 0.00 0.00 0.00 0.00 0.00 0.00 0.00 0.00 0.00 0.00 0.00 0.00 0.00 0.00 0.00 0.00 0.00 0.00 0.00
MSLP
1011.80 1012.46 1011.98 1013.65 1014.79 1015.78 1016.78 1017.84 1018.64 1021.63 1023.42 1024.63 1025.33 1025.97 1026.10 1026.68 1027.48 1028.34 1028.90 1029.55 1029.96 1030.24 1030.76 1031.42 1032.10 1032.93 1033.22 1033.57 1033.95 1034.37 1034.69 1034.83 1034.97 1035.04 1035.04 1035.11 1034.87 1034.73
1011.30 1012.29 1011.95 1013.07 1014.36 1015.47 1016.14 1017.50 1018.63 1019.35 1021.36 1023.05 1024.10 1024.80 1025.67 1026.46 1027.16 1028.00 1028.70 1029.40 1029.96 1030.28 1030.91 1031.60 1031.98 1033.07 1033.45 1033.93 1034.28 1034.58 1034.79 1035.02 1035.02 1035.13 1035.25 1035.27 1035.17 1035.05
1010.81 1011.56 1012.03 1012.17 1013.65 1015.02 1015.88 1016.92 1018.27 1019.18 1020.46 1023.45 1024.24 1024.62 1025.41 1026.37 1027.17 1027.80 1028.51 1029.23 1029.88 1030.30 1030.91 1031.58 1031.88 1032.99 1033.55 1033.99 1034.34 1034.57 1034.85 1035.01 1035.15 1035.37 1035.53 1035.45 1035.29 1035.27
1010.09 1010.89 1011.71 1011.87 1013.06 1014.20 1015.30 1016.17 1017.63 1018.65 1019.67 1021.75 1023.80 1024.47 1024.69 1025.59 1026.56 1027.65 1028.55 1029.15 1029.71 1030.27 1030.76 1031.49 1032.00 1032.85 1033.46 1033.79 1034.14 1034.50 1034.77 1035.07 1035.29 1035.58 1035.72 1035.71 1035.62 1035.48
1009.56 1009.81 1010.75 1011.62 1012.39 1013.67 1014.70 1015.62 1017.20 1018.44 1019.39 1020.66 1022.86 1023.88 1024.65 1025.12 1026.26 1027.72 1028.47 1029.21 1029.72 1030.14 1030.70 1031.22 1031.83 1032.59 1033.27 1033.70 1034.13 1034.38 1034.79 1035.14 1035.26 1035.49 1035.78 1035.87 1035.80 1035.72
1009.19 1009.04 1010.06 1010.88 1011.72 1012.60 1013.87 1015.01 1016.56 1017.91 1019.11 1020.26 1021.92 1023.09 1023.85 1024.90 1025.36 1026.77 1028.58 1029.31 1029.99 1030.18 1030.57 1031.07 1031.67 1032.32 1032.93 1033.48 1033.95 1034.28 1034.56 1034.80 1035.09 1035.40 1035.68 1035.83 1035.93 1035.88
1008.95 1008.57 1009.18 1010.17 1011.18 1011.49 1012.64 1014.39 1015.87 1017.20 1018.53 1019.59 1021.25 1022.38 1023.33 1024.12 1024.23 1025.41 1027.40 1028.98 1030.08 1030.16 1030.66 1031.00 1031.52 1032.15 1032.74 1033.23 1033.64 1034.11 1034.43 1034.55 1034.82 1035.16 1035.51 1035.76 1035.96 1035.99
1008.40 1007.80 1008.49 1009.77 1010.73 1011.57 1011.95 1013.09 1013.83 1015.74 1017.52 1018.55 1019.92 1020.76 1021.62 1022.66 1023.77 1024.74 1026.34 1028.16 1029.35 1029.77 1029.96 1031.12 1031.28 1031.88 1032.30 1032.67 1033.23 1033.68 1034.13 1034.40 1034.65 1034.97 1035.36 1035.76 1035.95 1035.93
1007.81 1006.88 1008.00 1009.07 1010.41 1011.42 1012.19 1012.87 1013.91 1014.10 1014.48 1016.04 1017.82 1019.03 1020.24 1021.27 1022.80 1024.34 1024.99 1026.44 1027.59 1028.88 1029.22 1030.74 1031.51 1031.63 1032.02 1032.45 1032.78 1033.15 1033.62 1033.97 1034.28 1034.74 1035.20 1035.60 1035.80 1035.93
1007.03 1005.74 1007.04 1008.15 1009.63 1010.79 1012.14 1013.07 1014.10 1014.92 1015.68 1015.92 1016.64 1018.05 1018.92 1020.14 1020.93 1022.25 1023.94 1026.11 1028.29 1028.97 1028.78 1029.81 1031.10 1031.28 1031.81 1031.98 1032.33 1032.62 1033.02 1033.45 1033.84 1034.38 1034.90 1035.28 1035.43 1035.66
1006.76 1005.24 1005.96 1007.38 1008.76 1010.07 1011.51 1012.74 1013.83 1014.88 1015.81 1016.16 1016.72 1017.93 1018.99 1019.82 1021.04 1022.71 1024.40 1025.72 1027.29 1028.41 1029.03 1028.84 1030.25 1030.90 1031.65 1031.69 1031.97 1032.20 1032.45 1032.90 1033.42 1033.96 1034.44 1034.79 1035.13 1035.37
1005.68 1005.01 1005.15 1006.45 1007.78 1009.20 1010.45 1011.82 1013.13 1014.26 1015.26 1016.60 1017.60 1018.72 1019.04 1019.78 1020.58 1021.03 1022.45 1024.02 1025.56 1027.60 1028.11 1028.67 1029.81 1030.52 1031.42 1031.03 1031.21 1031.66 1031.83 1032.29 1032.81 1033.48 1034.02 1034.30 1034.84 1035.03
1004.84 1003.69 1004.54 1005.79 1006.80 1008.25 1009.54 1010.53 1011.42 1013.13 1014.40 1016.15 1017.11 1018.34 1019.05 1019.67 1020.62 1021.19 1021.94 1022.53 1023.98 1025.21 1026.02 1026.83 1028.64 1029.53 1030.14 1030.58 1031.10 1031.32 1031.52 1031.89 1032.30 1032.97 1033.58 1034.05 1034.65 1034.92
1004.36 1003.09 1004.09 1005.34 1005.93 1007.44 1008.81 1009.73 1011.29 1013.03 1014.27 1015.65 1016.90 1017.92 1018.53 1019.40 1020.25 1021.53 1021.81 1022.57 1023.25 1023.87 1024.97 1025.46 1026.95 1027.66 1028.81 1030.12 1030.62 1031.29 1031.39 1031.75 1032.06 1032.60 1033.26 1033.93 1034.48 1034.76
1003.53 1002.78 1003.69 1005.18 1005.71 1006.71 1007.98 1009.59 1011.23 1012.38 1013.83 1015.06 1016.21 1016.95 1017.74 1018.75 1020.12 1021.83 1022.61 1023.19 1023.84 1024.47 1024.80 1025.43 1025.91 1026.88 1027.58 1028.48 1029.58 1030.36 1030.95 1031.69 1031.98 1032.50 1033.31 1033.85 1034.13 1034.56
1003.11 1003.67 1003.60 1004.81 1005.68 1006.31 1007.96 1009.49 1010.42 1011.61 1012.61 1013.64 1014.85 1016.57 1018.14 1019.07 1019.91 1021.06 1022.02 1023.37 1023.92 1025.24 1025.79 1025.75 1025.95 1026.30 1027.47 1028.07 1028.42 1029.55 1030.11 1030.73 1031.67 1032.36 1032.90 1033.58 1034.04 1034.30
1002.55 1002.66 1003.52 1004.50 1005.80 1006.70 1007.90 1008.95 1010.15 1011.17 1012.21 1013.33 1014.68 1016.10 1017.47 1018.42 1019.69 1020.48 1021.33 1022.58 1023.26 1024.45 1025.58 1026.17 1026.32 1026.72 1027.22 1027.74 1028.54 1029.07 1029.76 1030.55 1031.11 1032.14 1032.91 1033.50 1033.78 1034.07
1002.00 1002.08 1002.94 1003.87 1005.04 1006.11 1007.20 1008.73 1009.87 1010.57 1011.67 1012.89 1014.01 1014.92 1016.23 1017.52 1018.70 1019.80 1020.86 1021.46 1022.41 1023.51 1024.55 1025.51 1026.02 1026.71 1027.66 1028.36 1028.07 1028.75 1029.60 1030.17 1030.98 1031.81 1032.48 1033.02 1033.48 1033.80
1000.41 1001.46 1002.37 1003.13 1004.28 1005.29 1006.54 1007.66 1008.36 1009.72 1010.77 1011.96 1012.98 1013.90 1015.38 1016.74 1017.83 1019.13 1019.99 1020.93 1021.91 1022.75 1023.75 1024.73 1025.13 1025.39 1026.60 1027.69 1028.67 1028.51 1028.76 1029.83 1030.59 1031.66 1032.16 1032.61 1032.98 1033.34
1000.18 1000.96 1001.69 1002.55 1003.59 1004.39 1005.61 1007.00 1007.96 1009.37 1010.17 1011.19 1012.26 1013.09 1014.34 1015.38 1016.77 1017.90 1018.97 1019.83 1020.84 1022.01 1023.13 1024.07 1024.08 1024.09 1024.69 1025.88 1027.65 1029.00 1028.93 1029.33 1030.08 1030.90 1031.95 1032.71 1033.08 1033.25
999.33 1000.18 1001.06 1002.21 1003.04 1003.81 1005.15 1006.32 1007.04 1007.71 1008.80 1010.27 1011.51 1012.37 1013.41 1014.40 1015.64 1016.77 1017.98 1019.02 1019.92 1020.89 1021.94 1022.57 1022.84 1023.70 1024.95 1025.86 1027.44 1028.94 1029.61 1029.93 1030.14 1030.55 1031.46 1032.18 1032.71 1032.98
999.04 999.46 1000.47 1001.44 1002.45 1003.36 1004.64 1005.65 1006.54 1007.66 1008.65 1009.55 1010.78 1011.53 1012.64 1013.47 1014.45 1015.76 1016.92 1017.82 1018.78 1019.82 1021.03 1022.26 1023.06 1024.05 1024.55 1025.06 1026.48 1028.10 1029.24 1030.15 1030.56 1030.92 1031.25 1031.35 1031.68 1032.01
998.00 998.79 1000.24 1000.94 1001.83 1002.48 1003.70 1004.90 1005.82 1006.72 1007.73 1008.72 1009.74 1010.71 1011.90 1012.93 1013.83 1014.88 1016.03 1016.99 1017.98 1019.12 1020.11 1021.65 1022.78 1023.49 1024.27 1025.17 1026.27 1027.57 1028.87 1029.62 1030.25 1030.95 1031.44 1031.62 1031.81 1031.91
Thickness
5592 5599 5615 5612 5613 5614 5612 5612 5618 5601 5599 5592 5594 5593 5596 5597 5594 5590 5589 5587 5584 5582 5579 5574 5570 5564 5561 5556 5551 5545 5539 5534 5527 5521 5515 5508 5503 5497
5585 5590 5604 5606 5607 5607 5612 5609 5609 5613 5607 5599 5598 5597 5596 5593 5591 5589 5587 5583 5580 5578 5575 5570 5567 5559 5555 5550 5545 5539 5533 5528 5523 5516 5510 5504 5497 5490
5575 5584 5594 5606 5604 5603 5605 5606 5604 5609 5609 5584 5587 5590 5590 5587 5587 5586 5584 5580 5576 5574 5571 5566 5564 5555 5550 5545 5540 5535 5529 5524 5518 5511 5504 5498 5492 5485
5571 5578 5586 5598 5600 5602 5601 5606 5606 5607 5606 5591 5581 5585 5591 5588 5586 5583 5580 5577 5573 5570 5567 5562 5558 5551 5546 5543 5538 5531 5525 5520 5513 5506 5499 5493 5485 5479
5563 5576 5584 5590 5596 5596 5598 5603 5599 5597 5598 5595 5583 5583 5583 5586 5583 5578 5575 5571 5568 5565 5563 5560 5554 5548 5542 5538 5533 5528 5521 5515 5510 5503 5494 5487 5480 5473
5555 5572 5578 5585 5594 5598 5598 5601 5596 5596 5593 5592 5586 5583 5585 5581 5585 5579 5570 5565 5562 5560 5558 5555 5551 5545 5540 5534 5529 5523 5518 5513 5506 5499 5490 5482 5474 5467
5543 5564 5576 5583 5590 5599 5601 5599 5594 5594 5590 5589 5585 5583 5583 5583 5589 5583 5572 5560 5554 5556 5554 5551 5546 5542 5536 5530 5525 5520 5515 5510 5503 5495 5486 5476 5469 5461
5535 5560 5572 5575 5583 5588 5598 5598 5606 5600 5591 5591 5588 5590 5589 5586 5583 5579 5572 5560 5558 5554 5553 5545 5545 5540 5534 5529 5523 5517 5510 5504 5498 5490 5481 5471 5462 5456
5531 5558 5563 5570 5576 5579 5584 5592 5596 5602 5604 5599 5591 5591 5591 5590 5579 5572 5576 5569 5564 5553 5552 5544 5539 5535 5531 5527 5520 5515 5508 5501 5495 5486 5476 5466 5458 5450
5525 5556 5561 5568 5572 5576 5573 5582 5585 5585 5583 5593 5601 5594 5591 5586 5587 5581 5572 5560 5549 5550 5550 5546 5533 5531 5528 5525 5519 5512 5506 5498 5491 5481 5472 5463 5455 5446
5515 5552 5562 5566 5569 5572 5572 5575 5575 5576 5575 5583 5587 5585 5583 5582 5580 5572 5563 5561 5553 5546 5541 5545 5532 5528 5522 5519 5514 5509 5503 5495 5486 5478 5469 5460 5451 5443
5519 5546 5561 5564 5567 5569 5573 5574 5573 5573 5574 5573 5574 5572 5576 5577 5578 5577 5570 5565 5558 5541 5540 5539 5528 5525 5519 5517 5513 5508 5501 5493 5484 5474 5466 5458 5447 5440
5516 5548 5557 5561 5567 5569 5572 5577 5582 5576 5573 5568 5569 5563 5565 5570 5569 5570 5566 5564 5558 5552 5547 5544 5530 5524 5520 5514 5507 5503 5498 5489 5480 5471 5462 5453 5443 5434
5511 5546 5554 5558 5568 5568 5570 5575 5571 5566 5565 5563 5561 5558 5564 5566 5564 5558 5558 5556 5556 5556 5549 5546 5535 5530 5521 5510 5506 5495 5492 5484 5476 5468 5460 5448 5438 5429
5513 5539 5546 5547 5560 5566 5568 5564 5561 5561 5558 5558 5560 5563 5565 5563 5556 5547 5548 5548 5546 5544 5542 5538 5536 5528 5523 5515 5504 5495 5488 5478 5471 5463 5453 5442 5434 5424
5509 5520 5535 5540 5549 5560 5555 5553 5557 5559 5561 5563 5563 5558 5553 5551 5552 5549 5546 5538 5537 5530 5526 5528 5527 5524 5514 5509 5505 5492 5486 5479 5467 5456 5447 5437 5427 5419
5504 5518 5524 5529 5533 5536 5542 5547 5551 5553 5554 5557 5555 5553 5550 5549 5546 5544 5541 5535 5534 5526 5519 5516 5515 5512 5507 5502 5494 5488 5480 5471 5463 5452 5440 5429 5421 5413
5499 5515 5522 5527 5532 5537 5542 5542 5546 5551 5553 5552 5554 5556 5554 5549 5543 5540 5535 5536 5531 5524 5517 5511 5509 5504 5495 5489 5488 5481 5473 5465 5456 5446 5435 5425 5415 5407
5505 5511 5518 5528 5532 5540 5543 5546 5552 5552 5552 5552 5553 5554 5550 5545 5541 5535 5533 5530 5524 5519 5514 5507 5506 5506 5498 5491 5476 5474 5470 5458 5449 5439 5429 5420 5412 5402
5500 5511 5520 5527 5532 5540 5544 5544 5547 5544 5547 5549 5550 5550 5547 5545 5539 5535 5530 5527 5522 5515 5508 5503 5504 5504 5503 5494 5478 5462 5457 5452 5444 5434 5422 5411 5403 5395
5502 5511 5518 5523 5530 5538 5540 5541 5546 5549 5549 5546 5547 5546 5543 5542 5538 5534 5528 5523 5520 5515 5508 5504 5502 5495 5487 5480 5466 5451 5444 5439 5434 5427 5416 5405 5397 5389
5498 5511 5516 5521 5525 5534 5534 5535 5538 5539 5540 5542 5542 5543 5540 5540 5538 5531 5526 5522 5519 5513 5505 5496 5491 5484 5481 5478 5464 5448 5437 5427 5421 5414 5407 5401 5394 5385
5502 5511 5511 5519 5526 5532 5533 5532 5534 5536 5538 5539 5540 5539 5535 5533 5532 5527 5522 5519 5514 5508 5502 5490 5483 5478 5472 5464 5453 5442 5429 5421 5413 5404 5396 5389 5382 5376